{"data":{"norad_id":59694,"intl_designator":"2024-086N","name":"STARLINK-32107","alt_names":[],"object_type":"PAYLOAD","status":"ACTIVE","operator":null,"country":"US","launch_date":"2024-05-08","launch_site_code":"AFETR","launch_vehicle":null,"mission":null,"orbit_class":"UNKNOWN","rcs_meters":null,"size_class":null,"mass_kg":null,"dimensions":null,"purposes":["comms"],"wikipedia_slug":null,"has_3d_model":false,"image_url":null,"decayed_at":null,"tle_current":{"epoch":"2026-05-24T23:01:36.619968Z","epoch_age_seconds":88928,"freshness":"FRESH","line1":"1 59694U 24086N   26144.95945162  .00001234  00000+0  54360-4 0  9992","line2":"2 59694  43.0036 349.4209 0001022 255.8666 104.2072 15.27582918115770","mean_motion":15.27582918,"eccentricity":0.0001022,"inclination_deg":43.0036,"raan_deg":349.4209,"arg_perigee_deg":255.8666,"mean_anomaly_deg":104.2072,"bstar":5.436e-5,"rev_number":11577,"period_min":94.266568644623,"perigee_km":482.33914618578,"apogee_km":483.74157083786,"semimajor_km":6861.1773585118,"source":"CELESTRAK","updated_at":"2026-05-25T13:38:19.042194Z"}}}